sat.trackr.live / text

‹ back to catalog

STARLINK-2661

NORAD 48469 · 2021-040AT

PAYLOAD ACTIVE UNKNOWN

§ Identity

Operator
Country
US
Launch date
2021-05-09
Launch site
AFETR
Launch vehicle
Mass (kg)
RCS (m²)

Purposes: comms

External: N2YO · Heavens-Above · Gunter

§ Orbital elements

Epoch: 2026-05-25T04:21:04.347648Z

Period
94.01 min
Inclination
53.1593°
Eccentricity
0.0002058
Mean motion
15.31705225 rev/d
Perigee alt
469.3 km
Apogee alt
472.1 km
Semi-major
6,848.9 km
B*
1.1418e-4
RAAN
195.4086°
Arg perigee
84.5315°
Mean anomaly
275.5922°
Rev number
27,822

§ Raw data

STARLINK-26611 48469U 21040AT  26145.18130032  .00003180  00000+0  11418-3 0  99932 48469  53.1593 195.4086 0002058  84.5315 275.5922 15.31705225278227

JSON: /api/v1/satellites/48469 · /tle

For live sub-satellite position, see the globe view (requires WebGL).

§ Visibility from observer

Set your observer location to see the next 7 days of passes ≥ 10°. The values pass through the URL so the page stays shareable.

No JS? Fill the form by hand. The geolocation button needs JavaScript.